UWE-3

Last updated on Thu Sep 10 2026 00:03:12 GMT+0000 (Coordinated Universal Time)

1 39446U 13066AG 26252.35402846 .00003653 00000+0 31095-3 0 9998 2 39446 97.8775 209.0577 0049354 40.4693 320.0183 14.97510867690170
UTC large
Height (km)
Speed (km/s)
/
Latitude / Longitude
Inclination (degrees)
Orbital Period (minutes)
Azimuth
Elevation
Range (km)
Doppler Factor

Next 0 passes for location: London (51.5072 / 0.1276)

No passes found over London.
UWE-3